Location: Kitchener-Waterloo
(43.4500°N, 80.5000°W)
Time: 09:50:26
(UTC-04:00)

Amateur Radio Satellites - All Passes

Search period start: 24 August 2016 09:20
Search period end: 25 August 2016 09:20
Location: Kitchener-Waterloo, 43.4500°N, 80.5000°W

Satellite Date Start Highest point End Downlink Frequencies (MHz)
Time Altitude Azimuth
ANTELSAT 24 Aug 09:21:13 09:22:58 12° 60° (ENE) 09:24:43 437.575/2403.000
HO-68 24 Aug 09:30:49 09:38:02 76° 105° (ESE) 09:45:12 435.675
ZACube-1 24 Aug 09:37:29 09:40:09 16° 91° (E) 09:42:47 437.345
Cosmos 2504 24 Aug 09:47:36 09:55:39 45° 286° (WNW) 10:03:15 435.465 / 435.565
TIGRISAT 24 Aug 09:51:15 09:54:49 22° 66° (ENE) 09:58:20 435.000
CINEMA 3 24 Aug 09:58:16 10:02:32 37° 291° (WNW) 10:06:36 145.822/145.860
SEEDS 24 Aug 10:01:11 10:05:18 56° 287° (WNW) 10:09:25 437.485
SO-50 24 Aug 10:07:50 10:12:29 85° 236° (WSW) 10:16:59 436.795
CUSAT 1 24 Aug 10:09:48 10:14:16 21° 69° (ENE) 10:19:24 437.405
CANX-2 24 Aug 10:14:56 10:18:28 26° 292° (WNW) 10:21:58 2200.000
UNISAT 6 24 Aug 10:17:34 10:21:56 42° 71° (ENE) 10:26:14 437.425
ISS 24 Aug 10:20:43 10:23:21 23° 136° (SE) 10:26:01 145.825
CUTE 1.7 + AOD 2 24 Aug 10:21:54 10:25:22 25° 292° (WNW) 10:28:51 437.475
AIST 1 24 Aug 10:39:26 10:43:46 84° 279° (W) 10:48:10
CUBEBUG 2 24 Aug 10:43:03 10:47:05 39° 289° (WNW) 10:51:00 437.445
AAUSAT CUBESAT 2 24 Aug 10:44:11 10:47:57 34° 290° (WNW) 10:51:43 437.432
PRISM 24 Aug 10:44:51 10:45:35 10° 271° (W) 10:46:19 437.425
RS-15 24 Aug 10:45:08 10:57:21 59° 46° (NE) 11:09:23 29.354- 29.394
QB50P2 24 Aug 10:45:18 10:47:28 14° 62° (ENE) 10:49:37 145.880/145.840
POLYITAN 1 24 Aug 10:47:46 10:49:59 14° 62° (ENE) 10:52:12 437.675
COMPASS 1 24 Aug 10:48:29 10:51:56 25° 292° (WNW) 10:55:22 437.405
DUCHIFAT 1 24 Aug 10:48:53 10:50:39 12° 61° (ENE) 10:52:24 145.980
UWE-3 24 Aug 10:49:02 10:53:08 50° 287° (WNW) 10:57:09 435.000/436.395/437.385
Oscar 11 24 Aug 10:51:12 10:55:31 76° 286° (WNW) 10:59:49 145.826/435.025
FUNcube-1 24 Aug 10:53:17 10:57:29 76° 284° (WNW) 11:01:35 145.935
ANTELSAT 24 Aug 10:54:24 10:59:02 83° 256° (WSW) 11:03:38 437.575/2403.000
HUMSAT D 24 Aug 10:58:04 11:01:30 25° 95° (E) 11:04:54 437.325/437.525
NANOSAT C BR1 24 Aug 10:59:33 11:02:19 17° 64° (ENE) 11:05:05 145.865
ZACube-1 24 Aug 11:12:42 11:16:41 43° 288° (WNW) 11:20:36 437.345
BEESAT 2 24 Aug 11:19:31 11:22:53 28° 115° (ESE) 11:26:19 435.950
HO-68 24 Aug 11:19:38 11:25:02 24° 304° (NW) 11:30:27 435.675
GONETS M04 24 Aug 11:19:42 11:24:11 15° 74° (ENE) 11:28:41
DELFI C3 24 Aug 11:21:09 11:25:09 79° 284° (WNW) 11:29:09 145.870
TIGRISAT 24 Aug 11:26:53 11:31:16 40° 262° (W) 11:35:35 435.000
JAS-2 24 Aug 11:37:26 11:41:31 24° 62° (ENE) 11:45:46 435.910
QB50P1 24 Aug 11:39:38 11:43:44 45° 72° (ENE) 11:47:50 145.935-145.965
AUBIESAT-1 24 Aug 11:44:44 11:47:27 17° 96° (E) 11:50:03 437.475
BEESAT 3 24 Aug 11:45:03 11:48:57 80° 303° (WNW) 11:52:55 437.485
M-CUBED/EXP-1 PRIME 24 Aug 11:46:30 11:49:50 22° 98° (E) 11:52:58 437.505
POPSAT HIP 1 24 Aug 11:49:08 11:53:20 57° 73° (ENE) 11:57:33 437.405
CUSAT 1 24 Aug 11:50:36 11:56:31 73° 262° (W) 12:03:53 437.405
UNISAT 6 24 Aug 11:55:20 11:58:48 21° 267° (W) 12:02:15 437.425
ISS 24 Aug 11:56:25 11:59:36 49° 333° (NNW) 12:02:48 145.825
BUGSAT 1 24 Aug 11:58:13 12:01:52 29° 68° (ENE) 12:05:32 437.445
CUBEBUG 1 24 Aug 12:00:36 12:03:01 14° 90° (E) 12:05:26 437.445
DANDE 24 Aug 12:10:19 12:15:10 71° 80° (E) 12:21:39 436.750
ESTCUBE 1 24 Aug 12:11:01 12:14:56 28° 96° (E) 12:18:50 437.505/2401.250
QB50P2 24 Aug 12:18:30 12:22:45 63° 259° (WSW) 12:27:01 145.880/145.840
DX 1 24 Aug 12:19:26 12:21:09 12° 90° (E) 12:22:52 434.975-435.025
POLYITAN 1 24 Aug 12:21:03 12:25:17 62° 259° (WSW) 12:29:33 437.675
DUCHIFAT 1 24 Aug 12:21:31 12:25:45 70° 257° (WSW) 12:30:02 145.980
NANOSAT C BR1 24 Aug 12:33:33 12:37:40 48° 261° (W) 12:41:49 145.865
HUMSAT D 24 Aug 12:33:38 12:37:05 27° 292° (WNW) 12:40:30 437.325/437.525
AISAT 24 Aug 12:35:34 12:39:27 28° 96° (E) 12:43:17 437.250
SPROUT 24 Aug 12:36:34 12:38:50 14° 90° (E) 12:41:05 437.525
BEESAT 2 24 Aug 12:57:09 13:00:39 30° 313° (NW) 13:04:12 435.950
RS-15 24 Aug 12:58:09 13:09:44 50° 250° (WSW) 13:21:08 29.354- 29.394
AIST 2 24 Aug 12:59:32 13:01:41 14° 109° (ESE) 13:03:51 435.215
Cosmos 2499 24 Aug 13:03:17 13:11:18 56° 92° (E) 13:18:45 435.465 / 435.565
UKube-1 24 Aug 13:05:39 13:09:28 29° 96° (E) 13:13:14 .
GONETS M04 24 Aug 13:10:42 13:19:25 77° 95° (E) 13:28:14
Oscar 19 24 Aug 13:11:43 13:16:22 35° 67° (ENE) 13:21:03 437.125/150
50 SAT 24 Aug 13:16:43 13:20:23 83° 103° (ESE) 13:24:01 437.505
QB50P1 24 Aug 13:16:58 13:19:44 17° 268° (W) 13:22:31 145.935-145.965
AUBIESAT-1 24 Aug 13:18:10 13:22:11 42° 295° (WNW) 13:25:53 437.475
M-CUBED/EXP-1 PRIME 24 Aug 13:20:33 13:24:28 34° 297° (WNW) 13:28:05 437.505
JAS-2 24 Aug 13:21:25 13:26:21 45° 262° (W) 13:31:31 435.910
VELOX 1 24 Aug 13:22:56 13:27:26 86° 104° (ESE) 13:31:54 145.980
PCSat 24 Aug 13:24:33 13:29:55 68° 117° (ESE) 13:35:19 145.827
BEESAT 3 24 Aug 13:25:41 13:27:19 12° 324° (NW) 13:28:56 437.485
POPSAT HIP 1 24 Aug 13:27:21 13:29:28 13° 270° (W) 13:31:37 437.405
BUGSAT 1 24 Aug 13:33:36 13:37:11 26° 265° (W) 13:40:49 437.445
ISS 24 Aug 13:34:02 13:36:34 20° 353° (N) 13:39:05 145.825
CUBEBUG 1 24 Aug 13:35:18 13:39:40 57° 287° (WNW) 13:44:00 437.445
CUSAT 1 24 Aug 13:35:41 13:37:57 12° 276° (W) 13:40:21 437.405
ESTCUBE 1 24 Aug 13:47:45 13:51:42 30° 292° (WNW) 13:55:39 437.505/2401.250
Gurwin Techsat 1B 24 Aug 13:51:17 13:56:10 39° 68° (ENE) 14:01:04 435.225
DX 1 24 Aug 13:53:24 13:57:47 67° 287° (WNW) 14:02:07 434.975-435.025
DANDE 24 Aug 13:54:39 13:57:46 16° 269° (W) 14:01:19 436.750
AO-85 24 Aug 14:07:02 14:09:26 14° 34° (NE) 14:11:45 145.980
SPROUT 24 Aug 14:10:55 14:15:07 54° 287° (WNW) 14:19:16 437.525
AISAT 24 Aug 14:12:00 14:15:52 29° 293° (WNW) 14:19:43 437.250
ITAMSAT 1 24 Aug 14:18:23 14:22:21 23° 63° (ENE) 14:26:19 435.822/435.867
AO-7 24 Aug 14:18:35 14:24:59 25° 52° (NE) 14:31:22 29.400- 29.500
O/OREOS (USA 219) 24 Aug 14:18:51 14:21:30 16° 99° (E) 14:24:11 437.305
AIST 2 24 Aug 14:35:37 14:39:40 60° 307° (NW) 14:43:47 435.215
UKube-1 24 Aug 14:41:46 14:45:25 27° 293° (WNW) 14:49:04 .
TISAT 1 24 Aug 14:43:43 14:47:58 75° 102° (ESE) 14:52:09 437.305
Oscar 19 24 Aug 14:51:12 14:55:42 30° 265° (W) 15:00:15 437.125/150
Cosmos 2499 24 Aug 14:57:37 15:04:44 32° 290° (WNW) 15:11:26 435.465 / 435.565
VELOX 1 24 Aug 15:01:52 15:03:12 11° 301° (WNW) 15:04:33 145.980
ITUPSAT 1 24 Aug 15:05:41 15:09:32 24° 94° (E) 15:13:23 437.325
PCSat 24 Aug 15:09:33 15:13:48 23° 317° (NW) 15:18:06 145.827
GONETS M04 24 Aug 15:10:21 15:17:13 25° 297° (WNW) 15:24:10
ISS 24 Aug 15:11:04 15:13:46 23° 13° (NNE) 15:16:26 145.825
Gurwin Techsat 1B 24 Aug 15:31:37 15:36:11 29° 265° (W) 15:40:46 435.225
SWISSCUBE 24 Aug 15:40:15 15:44:58 60° 101° (E) 15:49:40 437.505
AO-85 24 Aug 15:46:19 15:50:39 85° 53° (NE) 15:54:39 145.980
O/OREOS (USA 219) 24 Aug 15:56:03 16:00:25 53° 297° (WNW) 16:04:53 437.305
ITAMSAT 1 24 Aug 15:56:27 16:01:28 50° 260° (W) 16:06:32 435.822/435.867
BEESAT 24 Aug 15:57:48 16:02:36 81° 104° (ESE) 16:07:21 436.000
AO-7 24 Aug 16:08:26 16:16:50 85° 252° (WSW) 16:25:15 29.400- 29.500
AIST 2 24 Aug 16:17:59 16:19:01 11° 327° (NNW) 16:20:05 435.215
TISAT 1 24 Aug 16:21:38 16:23:00 11° 300° (WNW) 16:24:21 437.305
ITUPSAT 1 24 Aug 16:43:04 16:47:28 38° 291° (WNW) 16:51:53 437.325
MOZHAYETS 4 24 Aug 16:44:08 16:48:24 37° 98° (E) 16:52:38
ISS 24 Aug 16:47:16 16:50:33 81° 29° (NNE) 16:53:49 145.825
NOAA 15 24 Aug 16:48:50 16:49:24 10° 54° (NE) 16:49:58 137.62
KKS-1 24 Aug 17:05:04 17:09:24 47° 100° (E) 17:13:41 437.445
YUBILEINY 24 Aug 17:09:25 17:16:37 27° 65° (ENE) 17:23:42 435.215
SWISSCUBE 24 Aug 17:19:16 17:22:18 17° 298° (WNW) 17:25:19 437.505
HORYU 2 24 Aug 17:26:23 17:30:51 76° 74° (ENE) 17:35:20 437.375
BEESAT 24 Aug 17:37:33 17:39:42 13° 301° (WNW) 17:41:53 436.000
Cosmos 2504 24 Aug 17:47:41 17:50:52 13° 57° (ENE) 17:54:01 435.465 / 435.565
STARS 24 Aug 17:50:58 17:55:23 72° 102° (ESE) 17:59:46 437.465
GOMX 1 24 Aug 17:51:52 17:55:58 26° 64° (ENE) 18:00:17 467.674
CUBESAT XI-V 24 Aug 17:54:25 17:58:25 27° 95° (E) 18:02:25 437.345
BRITE-PL 24 Aug 17:56:30 18:01:07 55° 71° (ENE) 18:06:09 437.365/2234.400
Cubesat XI-IV 24 Aug 17:57:25 18:02:06 32° 66° (ENE) 18:06:47 437.490
AO-7 24 Aug 18:05:32 18:10:44 18° 271° (W) 18:15:57 29.400- 29.500
LilacSat-2 24 Aug 18:06:46 18:10:05 28° 70° (ENE) 18:13:23 437.200
CUTE-I 24 Aug 18:10:07 18:15:05 41° 68° (ENE) 18:20:04 437.470
DOVE 4 24 Aug 18:17:07 18:21:00 22° 63° (ENE) 18:24:58 437.250
HO-68 24 Aug 18:17:26 18:20:49 14° 48° (NE) 18:24:11 435.675
NOAA 18 24 Aug 18:19:21 18:24:37 47° 69° (ENE) 18:29:56 137.9125
MOZHAYETS 4 24 Aug 18:21:45 18:25:21 24° 294° (WNW) 18:28:58
NOAA 15 24 Aug 18:22:59 18:28:11 68° 72° (ENE) 18:33:25 137.62
ISS 24 Aug 18:24:55 18:26:33 13° 228° (SW) 18:28:10 145.825
BEESAT 3 24 Aug 18:25:00 18:26:51 13° 37° (NE) 18:28:41 437.485
KKS-1 24 Aug 18:42:30 18:45:37 19° 297° (WNW) 18:48:43 437.445
Cosmos 2491 24 Aug 18:46:14 18:54:26 48° 88° (E) 19:02:41 435.465 / 435.565
YUBILEINY 24 Aug 19:05:30 19:14:15 72° 266° (W) 19:22:53 435.215
HORYU 2 24 Aug 19:06:46 19:07:55 11° 271° (W) 19:09:04 437.375
SEEDS 24 Aug 19:21:15 19:22:34 11° 61° (ENE) 19:23:54 437.485
CINEMA 3 24 Aug 19:23:35 19:27:46 27° 67° (ENE) 19:31:56 145.822/145.860
STRAND 1 24 Aug 19:26:41 19:29:15 14° 89° (E) 19:31:48 437.568
GOMX 1 24 Aug 19:29:01 19:33:45 43° 264° (W) 19:38:48 467.674
STARS 24 Aug 19:29:11 19:31:09 13° 300° (WNW) 19:33:07 437.465
CUBESAT XI-V 24 Aug 19:31:37 19:35:48 33° 291° (WNW) 19:40:00 437.345
CANX-2 24 Aug 19:33:05 19:36:28 24° 67° (ENE) 19:39:53 2200.000
BEESAT 2 24 Aug 19:36:02 19:39:30 27° 46° (NE) 19:42:58 435.950
BRITE-PL 24 Aug 19:36:51 19:40:03 18° 272° (W) 19:43:25 437.365/2234.400
Cubesat XI-IV 24 Aug 19:37:12 19:42:05 36° 263° (W) 19:46:59 437.490
Cosmos 2504 24 Aug 19:38:27 19:45:48 73° 80° (E) 19:52:56 435.465 / 435.565
CUTE 1.7 + AOD 2 24 Aug 19:39:52 19:43:18 25° 68° (ENE) 19:46:44 437.475
LilacSat-2 24 Aug 19:41:21 19:44:22 22° 266° (W) 19:47:24 437.200
CUTE-I 24 Aug 19:50:45 19:55:14 27° 265° (W) 19:59:46 437.470
DOVE 4 24 Aug 19:53:16 19:58:14 53° 261° (W) 20:03:26 437.250
HO-68 24 Aug 20:00:05 20:07:09 64° 69° (ENE) 20:14:16 435.675
NOAA 18 24 Aug 20:00:59 20:05:29 25° 266° (W) 20:10:01 137.9125
BEESAT 3 24 Aug 20:01:09 20:05:09 85° 56° (NE) 20:09:06 437.485
AAUSAT CUBESAT 2 24 Aug 20:01:11 20:03:48 17° 65° (ENE) 20:06:26 437.432
COMPASS 1 24 Aug 20:04:58 20:08:12 23° 67° (ENE) 20:11:26 437.405
NOAA 15 24 Aug 20:05:18 20:08:27 16° 270° (W) 20:11:37 137.62
CUBEBUG 2 24 Aug 20:06:06 20:09:36 21° 65° (ENE) 20:13:02 437.445
UWE-3 24 Aug 20:12:01 20:14:49 16° 63° (ENE) 20:17:36 435.000/436.395/437.385
Oscar 11 24 Aug 20:14:56 20:15:30 10° 60° (ENE) 20:16:04 145.826/435.025
FUNcube-1 24 Aug 20:17:09 20:18:06 11° 60° (ENE) 20:19:03 145.935
PCSat 24 Aug 20:29:13 20:32:16 15° 36° (NE) 20:35:19 145.827
ZACube-1 24 Aug 20:34:24 20:37:21 17° 64° (ENE) 20:40:16 437.345
Cosmos 2491 24 Aug 20:43:24 20:51:24 40° 289° (WNW) 20:59:31 435.465 / 435.565
AIST 1 24 Aug 20:45:35 20:49:21 27° 73° (ENE) 20:53:06
SEEDS 24 Aug 20:53:32 20:57:41 73° 258° (WSW) 21:01:51 437.485
CINEMA 3 24 Aug 21:00:01 21:04:42 39° 263° (W) 21:09:23 145.822/145.860
STRAND 1 24 Aug 21:03:52 21:08:59 74° 286° (WNW) 21:14:03 437.568
YUBILEINY 24 Aug 21:05:31 21:09:19 14° 287° (WNW) 21:13:06 435.215
CANX-2 24 Aug 21:08:28 21:12:12 30° 264° (W) 21:15:57 2200.000
BEESAT 2 24 Aug 21:13:45 21:17:20 32° 244° (WSW) 21:20:54 435.950
CUTE 1.7 + AOD 2 24 Aug 21:15:20 21:19:01 29° 264° (W) 21:22:45 437.475
AIST 2 24 Aug 21:18:11 21:21:05 18° 40° (NE) 21:23:58 435.215
Cosmos 2504 24 Aug 21:33:23 21:38:16 20° 280° (W) 21:43:05 435.465 / 435.565
AAUSAT CUBESAT 2 24 Aug 21:35:00 21:38:56 44° 261° (W) 21:42:54 437.432
COMPASS 1 24 Aug 21:39:54 21:43:36 31° 264° (W) 21:47:18 437.405
CUBEBUG 2 24 Aug 21:41:24 21:45:55 45° 261° (W) 21:50:23 437.445
UWE-3 24 Aug 21:46:18 21:50:50 58° 260° (W) 21:55:19 435.000/436.395/437.385
Oscar 11 24 Aug 21:46:38 21:50:56 87° 257° (WSW) 21:55:17 145.826/435.025
FUNcube-1 24 Aug 21:49:11 21:53:41 88° 257° (WSW) 21:58:06 145.935
HO-68 24 Aug 21:49:32 21:55:21 26° 267° (W) 22:01:12 435.675
HUMSAT D 24 Aug 21:50:37 21:53:50 22° 67° (ENE) 21:57:03 437.325/437.525
DELFI C3 24 Aug 22:07:44 22:11:38 67° 75° (ENE) 22:15:33 145.870
ZACube-1 24 Aug 22:08:53 22:13:16 51° 261° (W) 22:17:35 437.345
PCSat 24 Aug 22:11:17 22:16:43 68° 57° (ENE) 22:22:06 145.827
PRISM 24 Aug 22:21:09 22:25:21 87° 280° (W) 22:29:32 437.425
AIST 1 24 Aug 22:23:09 22:26:54 28° 271° (W) 22:30:37
AUBIESAT-1 24 Aug 22:30:13 22:34:15 30° 62° (ENE) 22:38:19 437.475
M-CUBED/EXP-1 PRIME 24 Aug 22:32:31 22:36:50 38° 64° (ENE) 22:41:12 437.505
ANTELSAT 24 Aug 22:46:04 22:49:02 18° 92° (E) 22:51:57 437.575/2403.000
STRAND 1 24 Aug 22:46:11 22:47:14 11° 304° (NW) 22:48:18 437.568
VELOX 1 24 Aug 22:49:23 22:49:41 10° 58° (ENE) 22:49:58 145.980
Cosmos 2499 24 Aug 22:54:12 22:58:52 18° 62° (ENE) 23:03:28 435.465 / 435.565
AIST 2 24 Aug 22:55:49 22:59:59 65° 238° (WSW) 23:04:07 435.215
CUBEBUG 1 24 Aug 22:58:01 23:00:28 15° 62° (ENE) 23:02:58 437.445
ESTCUBE 1 24 Aug 23:11:38 23:15:31 30° 68° (ENE) 23:19:26 437.505/2401.250
DX 1 24 Aug 23:16:11 23:18:21 14° 61° (ENE) 23:20:30 434.975-435.025
TIGRISAT 24 Aug 23:17:15 23:21:15 36° 97° (E) 23:25:10 435.000
GONETS M04 24 Aug 23:19:44 23:28:02 41° 71° (ENE) 23:36:14
HUMSAT D 24 Aug 23:25:30 23:29:17 33° 263° (W) 23:33:04 437.325/437.525
SPROUT 24 Aug 23:31:42 23:33:53 14° 62° (ENE) 23:36:05 437.525
AISAT 24 Aug 23:33:55 23:37:47 30° 68° (ENE) 23:41:40 437.250
UNISAT 6 24 Aug 23:44:32 23:48:53 78° 104° (ESE) 23:53:08 437.425
50 SAT 24 Aug 23:54:58 23:58:19 40° 72° (ENE) 00:01:43 437.505
PCSat 24 Aug 23:55:58 23:59:31 18° 255° (WSW) 00:03:04 145.827
UKube-1 25 Aug 00:01:13 00:04:57 29° 67° (ENE) 00:08:43 .
QB50P2 25 Aug 00:03:06 00:06:09 19° 93° (E) 00:09:10 145.880/145.840
AUBIESAT-1 25 Aug 00:04:28 00:08:35 32° 259° (W) 00:12:46 437.475
DUCHIFAT 1 25 Aug 00:05:35 00:08:18 17° 92° (E) 00:11:00 145.980
POLYITAN 1 25 Aug 00:05:38 00:08:41 19° 93° (E) 00:11:43 437.675
M-CUBED/EXP-1 PRIME 25 Aug 00:07:30 00:11:22 26° 261° (W) 00:15:20 437.505
NANOSAT C BR1 25 Aug 00:17:09 00:20:36 24° 94° (E) 00:24:00 145.865
VELOX 1 25 Aug 00:20:57 00:25:23 86° 80° (E) 00:29:53 145.980
ANTELSAT 25 Aug 00:21:52 00:25:58 42° 289° (WNW) 00:29:58 437.575/2403.000
SO-50 25 Aug 00:23:28 00:27:22 25° 113° (ESE) 00:31:15 436.795
O/OREOS (USA 219) 25 Aug 00:25:37 00:29:55 38° 60° (ENE) 00:34:13 437.305
JAS-2 25 Aug 00:27:31 00:32:52 25° 93° (E) 00:38:38 435.910
CUBEBUG 1 25 Aug 00:31:56 00:36:16 60° 259° (W) 00:40:39 437.445
Cosmos 2499 25 Aug 00:45:49 00:52:56 82° 265° (W) 01:00:02 435.465 / 435.565
ESTCUBE 1 25 Aug 00:48:27 00:52:18 28° 265° (W) 00:56:09 437.505/2401.250
DX 1 25 Aug 00:49:39 00:53:59 67° 258° (WSW) 00:58:22 434.975-435.025
TIGRISAT 25 Aug 00:54:26 00:57:43 21° 295° (WNW) 01:00:57 435.000
CUSAT 1 25 Aug 00:57:19 01:00:02 54° 283° (WNW) 01:03:19 437.405
QB50P1 25 Aug 00:58:39 01:02:53 74° 101° (E) 01:07:05 145.935-145.965
SPROUT 25 Aug 01:05:02 01:09:19 63° 259° (W) 01:13:37 437.525
POPSAT HIP 1 25 Aug 01:08:20 01:12:36 88° 284° (WNW) 01:16:48 437.405
AISAT 25 Aug 01:10:24 01:14:13 28° 264° (W) 01:18:04 437.250
RS-15 25 Aug 01:12:15 01:21:22 29° 101° (ESE) 01:30:47 29.354- 29.394
BUGSAT 1 25 Aug 01:13:40 01:17:36 39° 98° (E) 01:21:27 437.445
SWISSCUBE 25 Aug 01:14:53 01:15:24 10° 57° (ENE) 01:15:55 437.505
GONETS M04 25 Aug 01:16:37 01:24:56 47° 272° (W) 01:33:14
DANDE 25 Aug 01:23:25 01:25:59 68° 99° (E) 01:28:39 436.750
UNISAT 6 25 Aug 01:23:38 01:24:57 11° 300° (WNW) 01:26:14 437.425
Oscar 19 25 Aug 01:24:38 01:25:48 11° 87° (E) 01:26:58 437.125/150
50 SAT 25 Aug 01:30:25 01:32:07 13° 268° (W) 01:33:50 437.505
BEESAT 25 Aug 01:30:27 01:32:44 14° 59° (ENE) 01:35:01 436.000
TISAT 1 25 Aug 01:36:01 01:40:13 64° 74° (ENE) 01:44:27 437.305
UKube-1 25 Aug 01:37:19 01:40:58 27° 264° (W) 01:44:39 .
QB50P2 25 Aug 01:38:09 01:42:06 38° 290° (WNW) 01:46:00 145.880/145.840
DUCHIFAT 1 25 Aug 01:40:13 01:44:13 44° 289° (WNW) 01:48:11 145.980
POLYITAN 1 25 Aug 01:40:43 01:44:38 38° 290° (WNW) 01:48:31 437.675
NANOSAT C BR1 25 Aug 01:52:37 01:56:20 31° 292° (WNW) 02:00:01 145.865
SO-50 25 Aug 02:02:54 02:07:36 47° 310° (NW) 02:12:16 436.795
O/OREOS (USA 219) 25 Aug 02:05:29 02:09:07 23° 258° (WSW) 02:12:44 437.305
Gurwin Techsat 1B 25 Aug 02:07:49 02:10:21 13° 89° (E) 02:12:53 435.225
JAS-2 25 Aug 02:11:43 02:18:12 66° 288° (WNW) 02:25:30 435.910
ITUPSAT 1 25 Aug 02:13:23 02:17:36 32° 67° (ENE) 02:21:50 437.325
QB50P1 25 Aug 02:36:35 02:38:04 12° 299° (WNW) 02:39:33 145.935-145.965
Cosmos 2499 25 Aug 02:41:53 02:44:47 13° 284° (WNW) 02:47:41 435.465 / 435.565
SWISSCUBE 25 Aug 02:47:37 02:52:22 79° 74° (ENE) 02:57:08 437.505
BUGSAT 1 25 Aug 02:49:44 02:52:41 19° 295° (WNW) 02:55:37 437.445
Oscar 19 25 Aug 03:00:36 03:05:51 87° 105° (ESE) 03:11:04 437.125/150
BEESAT 25 Aug 03:05:07 03:09:53 78° 257° (WSW) 03:14:40 436.000
TISAT 1 25 Aug 03:14:39 03:16:17 12° 270° (W) 03:17:56 437.305
RS-15 25 Aug 03:20:44 03:32:21 84° 305° (NW) 03:44:39 29.354- 29.394
Gurwin Techsat 1B 25 Aug 03:45:35 03:50:56 80° 286° (WNW) 03:56:14 435.225
MOZHAYETS 4 25 Aug 03:46:58 03:51:14 40° 70° (ENE) 03:55:30
SO-50 25 Aug 03:47:42 03:49:15 11° 331° (NNW) 03:50:47 436.795
ITUPSAT 1 25 Aug 03:51:19 03:55:25 29° 264° (W) 03:59:34 437.325
JAS-2 25 Aug 03:59:23 04:02:16 13° 305° (NW) 04:05:17 435.910
KKS-1 25 Aug 04:03:54 04:08:14 50° 71° (ENE) 04:12:36 437.445
PHONESAT 2.4 25 Aug 04:06:37 04:08:59 21° 159° (SSE) 04:11:23 2401.200-2431.200
ITAMSAT 1 25 Aug 04:07:52 04:12:56 52° 100° (E) 04:17:58 435.822/435.867
AO-7 25 Aug 04:09:24 04:16:30 30° 95° (E) 04:23:32 29.400- 29.500
SWISSCUBE 25 Aug 04:29:08 04:30:43 11° 271° (W) 04:32:18 437.505
Oscar 19 25 Aug 04:41:50 04:44:26 14° 302° (WNW) 04:47:02 437.125/150
STARS 25 Aug 04:48:17 04:52:42 73° 74° (ENE) 04:57:09 437.465
Cosmos 2491 25 Aug 04:55:11 05:02:16 26° 64° (ENE) 05:09:17 435.465 / 435.565
CUBESAT XI-V 25 Aug 04:58:49 05:02:49 30° 68° (ENE) 05:06:50 437.345
HORYU 2 25 Aug 05:18:00 05:19:59 13° 90° (E) 05:21:57 437.375
MOZHAYETS 4 25 Aug 05:25:06 05:28:33 21° 267° (W) 05:32:00
Gurwin Techsat 1B 25 Aug 05:27:58 05:30:01 12° 304° (NW) 05:32:02 435.225
RS-15 25 Aug 05:36:20 05:46:54 35° 333° (NNW) 05:57:53 29.354- 29.394
PHONESAT 2.4 25 Aug 05:42:08 05:45:01 45° 175° (S) 05:47:55 2401.200-2431.200
KKS-1 25 Aug 05:42:11 05:45:04 17° 268° (W) 05:47:59 437.445
ITAMSAT 1 25 Aug 05:48:08 05:52:03 22° 298° (WNW) 05:55:56 435.822/435.867
BRITE-PL 25 Aug 06:00:27 06:04:37 21° 90° (E) 06:08:45 437.365/2234.400
AO-85 25 Aug 06:01:21 06:05:37 25° 113° (ESE) 06:09:45 145.980
AO-7 25 Aug 06:01:34 06:09:45 64° 294° (WNW) 06:17:53 29.400- 29.500
YUBILEINY 25 Aug 06:12:40 06:19:50 29° 82° (E) 06:26:59 435.215
Cubesat XI-IV 25 Aug 06:16:15 06:17:04 10° 87° (E) 06:17:53 437.490
CUTE-I 25 Aug 06:27:21 06:30:09 14° 89° (E) 06:32:55 437.470
STARS 25 Aug 06:28:12 06:29:33 11° 271° (W) 06:30:54 437.465
Cosmos 2504 25 Aug 06:31:45 06:33:15 11° 74° (ENE) 06:34:44 435.465 / 435.565
CUBESAT XI-V 25 Aug 06:36:10 06:40:09 29° 265° (W) 06:44:11 437.345
NOAA 15 25 Aug 06:37:34 06:41:45 23° 93° (E) 06:45:55 137.62
NOAA 18 25 Aug 06:41:17 06:44:50 17° 91° (E) 06:48:22 137.9125
STRAND 1 25 Aug 06:43:07 06:47:08 24° 63° (ENE) 06:51:09 437.568
Cosmos 2491 25 Aug 06:51:12 07:00:00 75° 266° (W) 07:08:48 435.465 / 435.565
HORYU 2 25 Aug 06:52:35 06:56:57 63° 287° (WNW) 07:01:19 437.375
LilacSat-2 25 Aug 07:12:44 07:16:14 34° 97° (E) 07:19:40 437.200
PHONESAT 2.4 25 Aug 07:18:21 07:21:10 36° 191° (SSW) 07:23:56 2401.200-2431.200
GOMX 1 25 Aug 07:29:21 07:34:46 58° 99° (E) 07:39:56 467.674
BRITE-PL 25 Aug 07:37:50 07:43:28 62° 287° (WNW) 07:49:02 437.365/2234.400
AO-85 25 Aug 07:40:43 07:45:52 51° 309° (NW) 07:50:44 145.980
DOVE 4 25 Aug 07:51:22 07:56:15 42° 97° (E) 08:00:53 437.250
Cubesat XI-IV 25 Aug 07:52:34 07:57:55 83° 104° (ESE) 08:03:14 437.490
RS-15 25 Aug 07:54:26 08:04:22 27° 8° (N) 08:14:25 29.354- 29.394
AO-7 25 Aug 07:56:18 08:00:57 16° 316° (NW) 08:05:34 29.400- 29.500
CUTE-I 25 Aug 08:05:27 08:10:46 76° 286° (WNW) 08:16:04 437.470
YUBILEINY 25 Aug 08:07:10 08:15:55 65° 282° (WNW) 08:24:44 435.215
NOAA 15 25 Aug 08:16:39 08:21:45 48° 290° (WNW) 08:26:50 137.62
Cosmos 2504 25 Aug 08:16:42 08:25:03 62° 92° (E) 08:32:53 435.465 / 435.565
NOAA 18 25 Aug 08:20:32 08:25:59 66° 288° (WNW) 08:31:23 137.9125
STRAND 1 25 Aug 08:21:08 08:26:01 46° 261° (W) 08:30:56 437.568
SEEDS 25 Aug 08:37:10 08:39:56 17° 92° (E) 08:42:42 437.485
LilacSat-2 25 Aug 08:47:43 08:50:17 18° 294° (WNW) 08:52:50 437.200
Cosmos 2491 25 Aug 08:50:53 08:55:14 15° 286° (WNW) 08:59:35 435.465 / 435.565
CANX-2 25 Aug 08:51:44 08:55:43 39° 98° (E) 08:59:42 2200.000
SO-50 25 Aug 08:53:07 08:57:16 31° 45° (NE) 09:01:20 436.795
CINEMA 3 25 Aug 08:53:41 08:58:11 48° 98° (E) 09:02:25 145.822/145.860
PHONESAT 2.4 25 Aug 08:55:34 08:57:02 13° 208° (SSW) 08:58:29 2401.200-2431.200
CUTE 1.7 + AOD 2 25 Aug 08:58:25 09:02:26 40° 98° (E) 09:06:26 437.475
GOMX 1 25 Aug 09:08:17 09:12:21 22° 297° (WNW) 09:16:18 467.674
PRISM 25 Aug 09:11:19 09:15:22 77° 75° (ENE) 09:19:30 437.425
